User: anonymous   Login
Location: Dennehotso
(36.8461°N, 109.8435°W)
Time: 23:12:08
(UTC+00:00)
Language:

Envisat - Orbit

View from above orbital plane
View from above orbital plane
View from above satellite
View from above satellite

Ground track
Ground track

The orbit data is extracted from the following two-line orbital elements,

1 27386U 02009A   21102.78523061  .00000016  00000-0  18645-4 0  9990
2 27386  98.1478 100.2011 0001380  87.8832  85.8315 14.38020538  1632
Epoch (UTC): 12 April 2021 18:50:43
Eccentricity: 0.0001380
inclination: 98.1478°
perigee height: 764 km
apogee height: 766 km
right ascension of ascending node: 100.2011°
argument of perigee: 87.8832°
revolutions per day: 14.38020538
mean anomaly at epoch: 85.8315°
orbit number at epoch: 163

The dashed part of the orbit path shows where the satellite is in the earth's shadow,  

DLR